This is the latest recevied weather packets stored in our database for station/object WD4HMR. If no packets are shown the sender has not sent any weather packets the latest 10 day(s).
| Time | Temp. | Humidity | Pressure | Rain* | Wind** | Luminosity | Snow |
|---|---|---|---|---|---|---|---|
| 1778092805 | 24.44° C | 80% | 1015 hPa | 0 mm | - | 1324 W/m² | - |
| 1778092215 | 24.44° C | 79% | 1015.1 hPa | 0 mm | - | 1322 W/m² | - |
| 1778092205 | 24.44° C | 79% | 1015.1 hPa | 0 mm | - | 1322 W/m² | - |
| 1778091614 | 24.44° C | 79% | 1015.1 hPa | 0 mm | - | 1316 W/m² | - |
| 1778088905 | 25.56° C | 76% | 1015.3 hPa | 0 mm | - | 1257 W/m² | - |
| 1778088605 | 25.56° C | 76% | 1015.3 hPa | 0 mm | - | 1247 W/m² | - |
| 1778086805 | 25° C | 76% | 1015.2 hPa | 0 mm | - | 1173 W/m² | - |
| 1778086511 | 25° C | 75% | 1015.3 hPa | 0 mm | - | 1159 W/m² | - |
| 1778086205 | 25° C | 76% | 1015.4 hPa | 0 mm | - | 1144 W/m² | - |
| 1778085304 | 25° C | 75% | 1015.3 hPa | 0 mm | - | 1097 W/m² | - |
| 1778085004 | 24.44° C | 76% | 1015.3 hPa | 0 mm | - | 1080 W/m² | - |
| 1778084704 | 24.44° C | 76% | 1015.4 hPa | 0 mm | - | 1063 W/m² | - |
| 1778084405 | 24.44° C | 77% | 1015.4 hPa | 0 mm | - | 1045 W/m² | - |
| 1778083504 | 24.44° C | 76% | 1015.4 hPa | 0 mm | - | 990 W/m² | - |
| 1778083205 | 24.44° C | 76% | 1015.4 hPa | 0 mm | - | 971 W/m² | - |
| 1778081704 | 23.33° C | 78% | 1015.4 hPa | 0 mm | - | 871 W/m² | - |
| 1778081404 | 23.33° C | 79% | 1015.3 hPa | 0 mm | - | 850 W/m² | - |
| 1778079904 | 22.78° C | 80% | 1015.5 hPa | 0 mm | - | 743 W/m² | - |
| 1778078704 | 22.78° C | 80% | 1015.6 hPa | 0 mm | - | 657 W/m² | - |
| 1778077505 | 21.67° C | 82% | 1015.4 hPa | 0 mm | - | 570 W/m² | - |
| 1778077205 | 21.67° C | 84% | 1015.4 hPa | 0 mm | - | 549 W/m² | - |
| 1778076604 | 21.67° C | 84% | 1015.3 hPa | 0 mm | - | 506 W/m² | - |
| 1778076305 | 21.67° C | 83% | 1015.4 hPa | 0 mm | - | 485 W/m² | - |
| 1778076004 | 21.11° C | 84% | 1015.2 hPa | 0 mm | - | 464 W/m² | - |
| 1778075705 | 21.11° C | 84% | 1015.2 hPa | 0 mm | - | 444 W/m² | - |
* Rain latest hour (hover to see other rain measurements)
** Current wind speed in m/s (hover to see current wind gust speed)